Temp
21 20 20 20 19 19 19 19 18 18 18 18 18 17 17 17 17 16 16 16 16 16 16 16 16 16 16 16 16 16 16 16 16 16 16 16 16 16 16 15 15 15
21 20 20 20 20 19 19 19 19 19 18 18 18 18 17 17 17 17 16 16 16 16 16 16 16 16 16 16 16 16 16 16 16 16 16 16 16 16 15 15 14 14
21 21 20 20 20 19 19 19 19 19 19 18 18 18 17 17 17 17 17 17 16 16 16 16 16 16 16 16 16 16 16 16 15 15 15 15 15 15 15 15 14 14
21 21 21 20 20 20 20 20 19 19 19 19 18 18 18 17 17 17 17 17 16 16 16 16 16 16 16 16 16 16 16 16 15 15 15 15 15 15 15 15 15 14
21 21 21 20 20 20 20 20 20 20 19 19 18 18 18 18 17 17 17 17 16 16 16 16 16 16 16 16 16 16 16 16 16 16 15 15 15 15 15 15 15 14
21 21 21 21 21 20 20 20 20 20 20 19 19 18 18 18 18 17 17 17 16 16 16 16 16 16 16 16 16 16 16 16 16 16 15 15 15 15 15 15 15 14
20 21 21 21 21 20 20 20 20 20 20 19 19 18 18 18 18 18 17 17 17 16 16 16 16 16 16 16 16 16 16 16 16 16 15 15 15 15 15 15 15 14
20 20 20 20 20 20 20 20 20 20 20 20 19 18 18 18 18 18 18 17 17 17 16 16 16 16 16 16 16 16 16 16 16 16 15 15 15 15 15 15 15 14
20 20 20 20 20 20 20 20 20 20 19 19 19 18 18 18 18 18 17 17 17 17 16 16 16 16 16 16 16 16 16 16 16 16 16 16 15 15 15 15 15 15
20 20 20 20 20 20 20 20 20 19 19 18 18 18 18 17 17 17 17 17 17 16 16 16 16 16 16 16 16 16 16 16 16 16 16 16 15 15 15 15 15 15
19 20 20 20 20 20 20 19 19 19 19 18 18 18 17 17 17 17 17 16 16 16 16 16 16 16 16 16 16 16 16 16 16 16 16 16 15 15 15 15 15 15
19 19 19 19 19 18 19 19 18 18 18 18 18 18 17 17 17 17 17 17 17 16 16 16 16 16 16 16 16 16 16 16 16 16 16 16 15 15 15 15 15 14
16 16 17 17 18 18 18 18 18 18 18 18 18 18 17 17 17 17 17 17 17 16 16 16 16 16 16 16 16 16 16 16 16 16 16 16 15 15 15 15 15 14
14 15 14 14 15 17 18 17 17 17 17 18 18 17 17 17 18 18 17 17 17 17 16 16 16 16 15 15 16 16 16 16 16 16 16 15 15 15 15 15 15 14
15 16 16 15 15 16 17 17 17 17 17 17 17 17 17 17 18 18 17 17 17 17 17 16 16 16 16 16 15 16 16 16 16 16 16 15 15 15 15 15 14 14
16 16 16 16 16 16 17 16 17 17 17 17 17 17 17 17 17 17 17 17 17 17 17 16 16 16 16 16 16 16 16 16 16 16 16 15 15 15 15 14 14 14
16 16 16 16 16 16 16 16 16 16 16 16 17 17 17 17 17 17 17 17 17 17 16 16 16 16 16 16 16 16 16 16 16 16 15 15 15 15 14 14 14 13
16 17 16 16 16 16 16 16 16 16 16 16 16 16 16 16 16 16 17 17 17 17 16 16 16 16 16 16 16 16 16 16 16 15 15 15 15 14 14 14 13 13
17 17 16 16 16 16 16 16 16 16 16 16 16 16 16 16 16 16 16 16 16 16 16 16 16 15 15 15 15 15 15 15 15 15 15 15 14 14 14 13 13 13
16 16 16 16 16 16 16 16 16 16 16 16 16 16 16 16 16 16 16 16 15 15 15 15 15 15 15 15 15 15 14 14 14 14 14 14 13 13 13 13 13 12
16 16 16 16 16 16 16 16 16 16 16 16 16 16 16 16 16 16 16 16 16 15 15 14 14 14 14 15 14 14 13 13 13 13 13 13 13 13 13 13 12 12
16 16 15 15 15 15 15 15 15 16 16 16 16 16 16 16 16 16 16 15 15 15 15 14 14 14 13 13 13 13 12 12 12 12 12 12 12 12 12 12 12 12
16 16 15 15 15 15 15 15 15 15 15 15 15 16 16 16 16 15 15 15 15 14 14 14 13 13 13 12 12 12 12 11 11 11 11 11 11 11 11 11 11 11
16 16 15 15 15 15 15 15 15 15 15 15 15 15 15 15 15 15 15 15 15 14 13 13 13 12 12 12 12 12 12 11 11 11 10 10 10 10 10 10 11 11
16 16 15 15 15 15 15 15 15 15 15 15 15 15 15 15 15 15 15 15 14 14 13 12 12 12 12 11 11 11 11 11 11 10 10 10 10 10 10 10 10 10
15 15 15 15 15 15 15 15 15 15 15 15 15 15 15 15 14 14 14 14 14 13 13 12 12 12 11 11 11 10 10 10 10 10 10 10 9 9 9 9 9 9
Height
799 799 800 802 805 808 809 809 810 813 815 817 819 821 823 825 826 828 829 830 831 832 832 833 834 834 834 834 835 835 835 835 835 835 836 836 836 836 836 837 837 837
798 799 800 801 804 806 808 808 808 811 814 816 818 820 823 825 827 828 829 830 831 832 833 834 834 835 835 835 836 836 836 836 836 836 836 837 837 837 837 837 838 838
799 799 800 801 802 805 806 807 807 809 813 815 817 820 822 824 826 828 829 830 831 832 833 834 835 835 836 836 837 837 837 837 837 837 837 837 838 838 838 838 838 838
801 800 800 802 803 804 806 807 807 808 811 814 817 819 821 823 825 827 828 829 830 831 832 833 834 835 836 836 837 837 838 838 838 838 838 838 838 838 838 839 839 838
800 800 800 801 803 804 806 807 808 808 809 812 815 818 820 822 824 825 827 829 830 831 832 833 834 835 836 836 837 837 838 838 839 839 839 839 839 839 839 839 839 839
798 798 799 800 802 803 805 806 808 808 808 811 813 816 818 820 822 824 826 827 829 831 832 833 834 835 835 836 837 837 838 838 839 839 839 839 839 839 839 839 839 839
797 797 798 799 801 803 804 805 807 808 808 809 811 814 816 818 821 822 824 826 828 830 831 833 834 834 835 836 836 837 837 838 838 839 839 839 839 839 839 839 839 839
798 797 798 799 800 802 803 804 806 807 808 808 810 813 815 817 819 820 822 824 826 828 830 831 833 834 835 836 836 836 836 837 837 838 838 838 838 838 839 839 839 839
797 797 798 799 800 801 802 803 805 806 807 808 809 812 814 816 818 819 821 823 824 826 828 829 831 832 833 834 835 835 835 835 836 836 837 837 837 837 838 838 839 839
797 797 797 798 799 800 801 802 803 805 806 807 809 811 813 815 817 819 820 822 823 825 827 828 830 830 831 832 833 834 834 834 834 835 836 836 836 836 836 837 837 838
794 795 794 795 797 798 800 801 802 804 805 807 809 810 812 814 816 817 819 821 822 824 825 827 829 830 830 830 831 831 832 833 833 833 834 834 835 835 835 835 836 836
792 793 793 793 795 797 799 801 802 804 805 807 808 810 811 813 814 816 818 820 821 823 825 826 827 828 829 828 828 829 829 830 831 831 832 833 833 834 834 834 834 835
790 792 794 794 795 796 798 801 802 804 805 806 808 809 810 812 813 815 816 818 819 821 824 824 825 826 827 827 827 826 827 828 828 829 830 831 831 832 833 834 834 834
789 791 795 799 800 798 798 800 803 804 805 806 807 808 809 810 811 813 814 815 817 818 819 820 821 822 824 824 824 824 824 824 825 826 827 828 830 831 832 833 833 834
790 790 794 801 804 803 800 801 802 803 805 807 807 807 808 809 810 811 812 813 814 815 815 815 816 818 819 820 821 821 821 821 822 823 824 825 827 829 830 831 832 833
792 792 793 798 802 803 801 801 803 803 804 807 807 807 808 809 809 810 810 811 811 812 812 812 813 814 815 817 817 817 818 818 819 820 821 823 824 826 827 828 829 831
793 795 796 798 800 800 800 800 802 803 803 806 807 807 808 808 809 809 808 808 809 809 809 810 810 812 813 813 814 814 815 815 816 817 818 820 821 822 824 825 827 828
795 796 798 799 800 800 800 801 802 803 804 805 805 805 806 806 807 807 807 807 807 807 807 808 808 809 810 811 811 811 812 811 812 814 816 817 818 819 821 822 823 825
796 797 797 799 799 800 800 801 802 803 803 804 804 804 804 804 805 805 805 805 805 806 806 807 807 808 808 808 808 808 809 809 811 813 813 814 815 817 818 820 821 823
796 796 797 798 799 800 800 801 802 802 802 803 803 803 803 803 804 804 804 804 804 805 806 806 807 806 806 806 806 807 807 808 810 811 812 813 814 815 816 818 820 822
796 797 798 798 799 800 801 801 802 802 802 802 802 802 802 802 803 803 803 803 803 804 805 805 805 805 805 804 804 805 806 806 808 810 811 812 814 815 816 818 819 820
796 797 798 799 800 801 801 801 801 801 801 801 801 801 802 801 802 802 802 802 802 802 804 804 804 804 804 804 804 805 805 806 807 809 810 811 813 815 816 817 818 819
795 796 798 799 800 801 801 801 801 800 800 800 800 801 801 801 801 801 801 801 801 801 802 803 804 804 805 805 805 805 806 807 808 809 810 811 812 814 816 817 818 818
794 795 797 798 799 800 800 800 800 800 800 800 800 800 800 800 800 799 799 800 800 801 801 802 803 804 805 805 806 806 807 808 809 810 811 812 813 814 816 817 818 818
794 794 795 796 798 798 799 799 799 800 800 800 799 799 799 799 798 797 798 799 799 799 800 801 802 803 804 805 805 807 807 808 809 811 812 812 813 814 815 816 817 817
792 793 794 795 796 796 797 798 798 799 799 799 799 798 798 797 796 796 796 797 798 798 799 800 801 802 803 804 805 806 807 807 809 810 811 812 813 814 814 814 815 816
Wind_Speed
30 29 31 28 28 29 27 27 27 24 21 19 17 17 16 14 13 13 11 9 9 9 11 12 11 10 10 10 10 10 10 9 9 10 10 10 10 10 10 9 7 5
31 30 31 29 29 30 28 28 27 23 21 19 18 18 17 15 14 13 11 9 8 8 9 11 11 11 11 9 8 8 8 9 9 8 8 9 9 10 10 9 7 5
31 30 30 29 29 31 28 27 27 23 21 20 20 20 18 16 15 14 11 8 8 8 7 9 10 10 9 7 6 7 8 8 8 7 5 6 7 7 7 8 7 4
27 28 28 28 29 30 28 27 27 24 22 22 22 22 20 18 17 15 12 9 9 9 8 9 10 9 8 7 6 6 7 6 6 6 5 4 4 4 4 5 6 5
26 26 26 27 28 28 26 26 26 24 24 24 24 23 22 19 18 15 13 11 10 10 9 10 11 10 8 8 8 7 6 7 6 5 5 4 4 3 1 2 4 5
25 25 24 25 26 27 26 25 25 23 24 25 25 25 23 20 18 15 13 12 11 10 10 10 11 11 10 9 10 8 8 9 7 6 7 7 5 4 4 1 2 4
19 22 22 20 24 28 25 24 25 23 23 24 25 26 24 21 18 16 13 12 12 12 11 11 12 12 11 11 11 10 10 10 9 8 9 9 7 5 5 4 2 2
16 18 17 16 22 28 24 23 23 21 20 23 25 26 25 21 19 16 14 13 13 13 12 11 12 13 13 13 12 11 11 12 11 11 12 11 10 8 8 7 5 5
16 16 14 13 19 24 22 21 20 17 17 22 26 27 25 21 19 18 16 15 14 14 14 14 14 14 15 14 14 14 14 14 14 13 13 13 13 12 11 10 9 7
18 18 16 14 17 20 20 19 18 16 17 20 25 27 25 22 21 20 19 17 16 14 13 15 16 17 17 17 17 17 17 16 16 16 14 14 15 15 13 12 13 11
21 20 18 16 16 18 19 18 18 18 17 18 22 25 25 22 19 18 17 15 14 12 11 11 13 17 19 20 19 19 20 19 19 19 17 15 15 16 14 13 15 13
19 19 18 18 17 17 18 18 18 17 17 16 17 20 21 19 17 16 15 13 10 8 8 10 12 15 18 22 23 22 21 21 21 21 19 17 17 17 14 13 14 13
16 13 10 12 15 16 15 14 13 13 14 13 12 14 14 14 14 13 14 14 10 9 12 16 19 19 19 22 25 25 24 23 24 23 21 19 19 18 16 14 14 13
16 15 11 8 6 9 10 9 8 7 8 9 10 11 12 13 13 14 16 18 17 16 17 21 25 26 25 25 26 27 28 27 26 25 23 21 21 19 17 16 15 13
8 9 7 3 2 3 6 7 6 4 3 6 9 10 12 13 14 15 17 19 20 20 22 25 27 28 28 28 27 28 31 30 29 28 25 23 21 19 18 17 14 13
10 11 12 12 9 6 7 7 4 3 3 5 7 7 9 11 12 13 15 17 19 22 23 25 26 27 27 27 28 30 32 32 30 29 27 25 22 20 19 17 14 14
13 12 13 14 12 9 9 8 6 4 4 6 7 8 10 12 14 16 16 16 18 20 21 23 26 28 28 28 28 29 31 32 32 30 28 26 24 23 21 19 17 16
12 11 13 14 12 10 9 8 7 6 5 7 9 11 12 12 15 17 17 18 19 19 21 23 26 28 28 27 27 28 30 32 32 30 28 27 25 24 23 21 19 17
11 11 14 13 10 9 7 7 6 5 3 4 5 6 8 9 9 10 11 11 12 14 17 20 23 26 25 24 24 26 27 27 28 29 30 29 26 24 23 21 19 17
10 13 14 11 8 7 5 5 4 2 1 2 2 2 3 4 4 5 7 6 6 7 8 10 15 18 20 21 22 21 19 21 24 26 27 25 23 23 22 19 17 17
10 11 10 8 7 6 5 5 4 2 2 1 2 3 4 5 5 6 7 8 10 9 6 8 11 13 15 17 18 16 15 19 23 24 23 21 19 17 17 16 15 16
10 8 7 6 6 6 6 4 4 3 3 2 2 3 5 6 7 8 8 9 11 11 9 9 10 11 11 9 8 10 13 17 19 19 18 17 15 13 13 14 13 12
11 8 8 8 7 7 5 4 4 4 3 4 4 4 5 7 8 9 8 8 9 9 9 7 7 7 7 5 7 11 13 14 13 13 11 11 11 10 9 9 8 10
11 9 10 9 8 7 5 4 5 5 4 5 5 6 7 8 10 10 9 8 8 9 8 6 5 6 7 8 9 11 12 11 10 10 9 8 8 6 4 6 8 11
6 7 9 9 7 7 6 6 6 6 6 6 6 7 8 9 10 12 10 9 10 10 8 6 6 8 9 10 10 11 12 12 11 9 8 7 6 4 3 5 9 12
0 2 4 7 10 11 10 10 8 7 7 7 8 9 10 9 11 13 12 12 12 11 9 7 7 8 10 12 12 11 11 11 11 10 9 8 7 6 4 2 4 7
Wind_Direction
172 172 171 165 163 167 165 161 162 163 163 162 160 160 156 149 139 139 143 137 135 137 136 135 131 128 129 126 120 115 113 110 103 101 102 103 106 112 123 127 119 105
176 176 173 168 167 171 169 166 166 167 169 168 165 163 160 151 146 151 155 149 144 139 138 141 139 136 134 132 134 130 125 119 110 104 100 101 103 107 120 124 113 97
178 177 176 173 171 173 172 170 170 169 171 172 168 166 162 155 154 161 165 162 158 152 148 144 142 147 147 143 148 144 135 124 119 124 115 102 102 101 110 117 111 101
181 178 179 177 175 175 173 172 171 170 171 173 173 170 165 160 161 169 174 174 173 168 165 155 149 159 165 162 166 156 146 146 145 151 145 122 121 114 106 113 118 121
187 181 180 180 179 177 176 174 173 171 172 174 174 172 168 165 166 172 178 180 182 179 175 168 164 173 181 176 183 182 170 176 182 179 171 158 170 191 170 120 129 138
188 185 183 183 182 180 179 179 176 172 172 175 176 174 172 170 170 173 177 182 189 191 189 182 177 183 191 187 190 197 192 193 199 196 195 196 202 222 232 224 130 147
181 180 180 181 183 181 177 178 179 177 174 175 176 177 176 174 173 176 179 183 191 198 202 197 191 192 198 199 199 201 199 205 212 205 203 212 220 226 227 233 260 226
175 168 166 165 175 180 173 167 172 174 175 177 176 176 178 177 176 178 184 187 193 202 207 207 206 205 206 206 206 206 206 211 215 209 209 219 223 220 221 230 242 242
181 174 170 159 165 173 168 162 161 156 160 171 172 172 173 175 178 182 186 189 194 202 208 212 213 212 214 215 212 213 216 217 216 213 212 219 222 217 219 230 236 235
188 187 186 175 166 168 170 170 166 155 150 156 165 170 171 171 176 180 183 186 192 199 209 218 221 220 219 219 218 220 222 221 219 218 218 221 224 220 219 228 233 231
185 185 184 181 177 174 175 176 172 167 159 152 159 167 170 171 173 175 177 179 184 189 197 215 229 231 227 225 224 224 225 224 222 223 224 224 225 225 224 230 232 226
173 176 176 176 176 174 175 175 170 169 169 162 161 164 169 174 177 180 183 180 177 191 216 237 244 243 240 236 230 226 225 226 226 227 227 226 226 227 229 232 225 212
127 126 134 151 160 163 168 173 173 176 180 180 179 175 174 177 182 193 200 203 217 249 259 260 258 256 255 251 241 232 227 226 227 227 227 226 225 225 226 226 217 205
108 100 79 66 106 142 154 166 180 191 201 211 215 210 205 202 209 226 228 227 241 249 244 250 257 257 257 257 252 241 231 228 226 225 225 223 222 223 223 222 220 221
125 131 130 93 65 113 120 131 153 167 197 235 239 229 225 224 231 244 243 239 244 244 241 248 255 255 254 257 257 249 237 229 225 223 222 220 218 218 219 219 221 226
126 137 154 161 163 151 126 124 145 171 196 230 242 239 240 242 241 243 244 243 244 246 249 253 254 256 258 259 259 253 241 229 224 223 220 216 214 212 211 212 212 211
126 132 148 154 152 149 147 154 171 179 190 217 237 244 246 247 243 241 242 243 243 245 251 256 258 259 259 258 255 251 242 232 224 221 217 213 212 211 207 204 206 209
132 138 143 141 137 136 139 147 157 164 182 209 227 234 235 237 239 241 245 248 248 250 255 261 263 261 260 259 256 251 244 234 224 218 213 211 211 210 206 204 210 217
140 140 138 134 133 138 139 144 155 167 189 204 212 218 222 227 231 237 241 242 245 251 258 265 266 265 265 266 261 253 242 230 222 217 213 211 210 208 206 206 212 217
142 133 130 129 132 145 162 173 178 185 207 221 239 238 229 236 248 253 246 236 245 261 266 270 269 267 268 267 262 254 239 223 217 214 209 206 203 200 198 202 206 206
147 134 128 130 137 149 167 180 189 201 204 228 269 268 262 264 270 280 276 262 261 270 278 282 281 278 276 273 268 259 236 214 208 205 199 193 189 188 191 196 197 198
156 147 141 143 152 169 183 187 183 189 203 228 251 255 260 260 260 274 281 261 249 250 258 272 284 288 284 276 256 228 203 191 188 186 183 182 185 191 198 198 199 208
165 163 167 172 180 186 195 207 209 210 226 238 245 257 262 255 251 255 256 242 235 238 238 243 262 275 270 240 201 185 175 170 172 168 161 166 177 188 203 214 230 242
170 176 182 188 194 197 210 231 233 238 250 251 257 270 272 258 242 233 226 225 235 237 225 213 217 226 227 217 204 193 182 174 172 165 154 157 167 178 212 238 240 238
173 185 187 188 196 211 228 234 234 242 255 265 268 274 283 269 235 219 213 215 228 230 213 196 198 206 215 218 213 211 207 200 191 177 163 157 159 158 176 212 228 235
278 214 210 222 234 237 232 228 231 237 249 264 270 278 292 279 231 211 205 204 210 212 203 196 200 204 211 216 214 213 213 207 199 189 177 167 155 136 119 153 236 248